| time (UTC) | temp C | wind direction | speed KPH | gust KPH | rain 1hr cm | rain 24hr cm | rain mn cm | humidity % | barometer mb |
| 20260508020543 | 13 | 33 | 0.0 | 0.0 | 0.00 | 0.00 | 0.00 | 78 | 1014.0 |
| 20260508020042 | 13 | 7 | 0.0 | 1.6 | 0.00 | 0.00 | 0.00 | 77 | 1014.0 |
| 20260508015543 | 13 | 22 | 0.0 | 1.6 | 0.00 | 0.00 | 0.00 | 76 | 1014.0 |
| 20260508015043 | 13 | 252 | 0.0 | 1.6 | 0.00 | 0.00 | 0.00 | 76 | 1014.0 |
| 20260508014542 | 13 | 225 | 0.0 | 1.6 | 0.00 | 0.00 | 0.00 | 77 | 1014.0 |
| 20260508014042 | 13 | 325 | 1.6 | 4.8 | 0.00 | 0.00 | 0.00 | 78 | 1014.0 |
| 20260508013543 | 13 | 18 | 1.6 | 1.6 | 0.00 | 0.00 | 0.00 | 79 | 1014.0 |
| 20260508013042 | 13 | 301 | 0.0 | 3.2 | 0.00 | 0.00 | 0.00 | 79 | 1014.0 |
| 20260508012542 | 13 | 236 | 0.0 | 3.2 | 0.00 | 0.00 | 0.00 | 80 | 1014.0 |
| 20260508012042 | 13 | 4 | 1.6 | 1.6 | 0.00 | 0.00 | 0.00 | 81 | 1014.0 |
| 20260508011542 | 13 | 211 | 0.0 | 3.2 | 0.00 | 0.00 | 0.00 | 81 | 1015.0 |
| 20260508011042 | 13 | 173 | 0.0 | 3.2 | 0.00 | 0.00 | 0.00 | 82 | 1015.0 |
| 20260508010542 | 13 | 245 | 3.2 | 3.2 | 0.00 | 0.00 | 0.00 | 82 | 1014.0 |
| 20260508010043 | 13 | 265 | 1.6 | 3.2 | 0.00 | 0.00 | 0.00 | 82 | 1015.0 |
| 20260508005542 | 13 | 269 | 3.2 | 3.2 | 0.00 | 0.00 | 0.00 | 82 | 1015.0 |
| 20260508005042 | 13 | 230 | 0.0 | 4.8 | 0.00 | 0.00 | 0.00 | 82 | 1015.0 |
| 20260508004543 | 13 | 257 | 3.2 | 4.8 | 0.00 | 0.00 | 0.00 | 82 | 1014.0 |
| 20260508004042 | 14 | 236 | 1.6 | 3.2 | 0.00 | 0.00 | 0.00 | 82 | 1015.0 |
| 20260508003542 | 14 | 184 | 1.6 | 4.8 | 0.00 | 0.00 | 0.00 | 81 | 1015.0 |
| 20260508003043 | 14 | 269 | 0.0 | 3.2 | 0.00 | 0.00 | 0.00 | 82 | 1015.0 |
| 20260508002543 | 14 | 122 | 0.0 | 0.0 | 0.00 | 0.00 | 0.00 | 82 | 1015.0 |
| 20260508002042 | 14 | 139 | 0.0 | 1.6 | 0.00 | 0.00 | 0.00 | 81 | 1015.0 |
| 20260508001543 | 15 | 9 | 1.6 | 3.2 | 0.00 | 0.00 | 0.00 | 81 | 1015.0 |
| 20260508001042 | 15 | 201 | 0.0 | 3.2 | 0.00 | 0.00 | 0.00 | 81 | 1015.0 |
| 20260508000542 | 15 | 33 | 0.0 | 4.8 | 0.00 | 0.00 | 0.00 | 81 | 1015.0 |
| 20260508000042 | 15 | 41 | 1.6 | 3.2 | 0.00 | 0.00 | 0.00 | 81 | 1015.0 |
| 20260507235542 | 15 | 341 | 3.2 | 4.8 | 0.00 | 0.00 | 0.00 | 81 | 1015.0 |
| 20260507235043 | 15 | 339 | 4.8 | 4.8 | 0.00 | 0.00 | 0.00 | 81 | 1015.0 |
| 20260507234542 | 15 | 338 | 3.2 | 3.2 | 0.00 | 0.00 | 0.00 | 81 | 1015.0 |
| 20260507234043 | 15 | 348 | 4.8 | 6.4 | 0.00 | 0.00 | 0.00 | 81 | 1015.0 |
| 20260507233542 | 15 | 357 | 3.2 | 8.0 | 0.00 | 0.00 | 0.00 | 81 | 1015.0 |
| 20260507233043 | 15 | 308 | 4.8 | 4.8 | 0.00 | 0.00 | 0.00 | 80 | 1015.0 |
| 20260507232542 | 15 | 327 | 4.8 | 6.4 | 0.00 | 0.00 | 0.00 | 80 | 1015.0 |
| 20260507232042 | 15 | 305 | 1.6 | 6.4 | 0.00 | 0.00 | 0.00 | 80 | 1015.0 |
| 20260507231543 | 15 | 329 | 3.2 | 6.4 | 0.00 | 0.00 | 0.00 | 81 | 1015.0 |
| 20260507231042 | 15 | 331 | 4.8 | 6.4 | 0.00 | 0.00 | 0.00 | 81 | 1015.0 |
| 20260507230543 | 15 | 343 | 4.8 | 6.4 | 0.00 | 0.00 | 0.00 | 80 | 1015.0 |
| 20260507230042 | 15 | 353 | 3.2 | 6.4 | 0.00 | 0.00 | 0.00 | 80 | 1015.0 |
| 20260507225542 | 15 | 14 | 1.6 | 8.0 | 0.00 | 0.00 | 0.00 | 80 | 1015.0 |
| 20260507225043 | 15 | 320 | 3.2 | 6.4 | 0.00 | 0.00 | 0.00 | 80 | 1015.0 |
| 20260507224542 | 15 | 339 | 4.8 | 4.8 | 0.00 | 0.00 | 0.00 | 80 | 1015.0 |
| 20260507224042 | 15 | 269 | 1.6 | 6.4 | 0.00 | 0.00 | 0.00 | 80 | 1015.0 |
| 20260507223543 | 15 | 340 | 4.8 | 6.4 | 0.00 | 0.00 | 0.00 | 80 | 1015.0 |
| 20260507223042 | 15 | 346 | 4.8 | 8.0 | 0.00 | 0.00 | 0.00 | 80 | 1015.0 |
| 20260507222542 | 15 | 315 | 6.4 | 8.0 | 0.00 | 0.00 | 0.00 | 80 | 1015.0 |
| 20260507222042 | 15 | 353 | 4.8 | 4.8 | 0.00 | 0.00 | 0.00 | 80 | 1015.0 |
| 20260507221542 | 15 | 328 | 4.8 | 8.0 | 0.00 | 0.00 | 0.00 | 80 | 1015.0 |
| 20260507221043 | 15 | 345 | 4.8 | 6.4 | 0.00 | 0.00 | 0.00 | 80 | 1015.0 |
| 20260507220542 | 15 | 330 | 4.8 | 6.4 | 0.00 | 0.00 | 0.00 | 80 | 1015.0 |
| 20260507220043 | 15 | 276 | 3.2 | 4.8 | 0.00 | 0.00 | 0.00 | 80 | 1015.0 |
| 20260507215543 | 15 | 353 | 3.2 | 8.0 | 0.00 | 0.00 | 0.00 | 79 | 1015.0 |
| 20260507215042 | 15 | 306 | 6.4 | 8.0 | 0.00 | 0.00 | 0.00 | 79 | 1015.0 |
| 20260507214543 | 15 | 358 | 1.6 | 6.4 | 0.00 | 0.00 | 0.00 | 79 | 1015.0 |
| 20260507214043 | 15 | 3 | 6.4 | 8.0 | 0.00 | 0.00 | 0.00 | 79 | 1015.0 |
| 20260507213542 | 15 | 327 | 4.8 | 8.0 | 0.00 | 0.00 | 0.00 | 79 | 1015.0 |
| 20260507213042 | 15 | 338 | 3.2 | 9.7 | 0.00 | 0.00 | 0.00 | 79 | 1015.0 |
| 20260507212543 | 15 | 329 | 6.4 | 8.0 | 0.00 | 0.00 | 0.00 | 79 | 1015.0 |
| 20260507212043 | 15 | 26 | 8.0 | 8.0 | 0.00 | 0.00 | 0.00 | 79 | 1015.0 |
| 20260507211542 | 15 | 278 | 1.6 | 4.8 | 0.00 | 0.00 | 0.00 | 79 | 1015.0 |
| 20260507211043 | 15 | 323 | 3.2 | 9.7 | 0.00 | 0.00 | 0.00 | 79 | 1015.0 |
| 20260507210543 | 15 | 344 | 3.2 | 4.8 | 0.00 | 0.00 | 0.00 | 79 | 1016.0 |
| 20260507210043 | 15 | 331 | 4.8 | 6.4 | 0.00 | 0.00 | 0.00 | 78 | 1015.0 |
| 20260507205543 | 15 | 344 | 4.8 | 4.8 | 0.00 | 0.00 | 0.00 | 78 | 1015.0 |
| 20260507205043 | 15 | 3 | 3.2 | 4.8 | 0.00 | 0.00 | 0.00 | 78 | 1015.0 |
| 20260507204543 | 15 | 342 | 4.8 | 9.7 | 0.00 | 0.00 | 0.00 | 78 | 1015.0 |
| 20260507204042 | 16 | 321 | 9.7 | 9.7 | 0.00 | 0.00 | 0.00 | 78 | 1015.0 |
| 20260507203542 | 16 | 352 | 4.8 | 4.8 | 0.00 | 0.00 | 0.00 | 78 | 1015.0 |
| 20260507203045 | 16 | 321 | 4.8 | 8.0 | 0.00 | 0.00 | 0.00 | 78 | 1015.0 |
| 20260507202543 | 15 | 300 | 3.2 | 6.4 | 0.00 | 0.00 | 0.00 | 78 | 1015.0 |
| 20260507202043 | 16 | 11 | 6.4 | 8.0 | 0.00 | 0.00 | 0.00 | 78 | 1015.0 |
| 20260507201542 | 16 | 333 | 4.8 | 6.4 | 0.00 | 0.00 | 0.00 | 78 | 1015.0 |
| 20260507201042 | 16 | 355 | 3.2 | 6.4 | 0.00 | 0.00 | 0.00 | 78 | 1015.0 |
| 20260507200543 | 16 | 92 | 4.8 | 6.4 | 0.00 | 0.00 | 0.00 | 78 | 1015.0 |
| 20260507200042 | 16 | 8 | 4.8 | 6.4 | 0.00 | 0.00 | 0.00 | 77 | 1015.0 |
| 20260507195542 | 16 | 349 | 6.4 | 6.4 | 0.00 | 0.00 | 0.00 | 77 | 1015.0 |
| 20260507195042 | 16 | 52 | 8.0 | 14.5 | 0.00 | 0.00 | 0.00 | 77 | 1015.0 |
| 20260507194543 | 16 | 15 | 4.8 | 9.7 | 0.00 | 0.00 | 0.00 | 77 | 1015.0 |
| 20260507194042 | 16 | 46 | 3.2 | 8.0 | 0.00 | 0.00 | 0.00 | 77 | 1014.0 |
| 20260507193543 | 16 | 17 | 3.2 | 12.9 | 0.00 | 0.00 | 0.00 | 77 | 1014.0 |
| 20260507193045 | 16 | 55 | 8.0 | 11.3 | 0.00 | 0.00 | 0.00 | 76 | 1014.0 |
| 20260507192543 | 16 | 58 | 11.3 | 11.3 | 0.00 | 0.00 | 0.00 | 76 | 1014.0 |
| 20260507192043 | 16 | 15 | 8.0 | 9.7 | 0.00 | 0.00 | 0.00 | 76 | 1014.0 |
| 20260507191543 | 16 | 26 | 8.0 | 8.0 | 0.00 | 0.00 | 0.00 | 75 | 1014.0 |
| 20260507191043 | 16 | 50 | 9.7 | 9.7 | 0.00 | 0.00 | 0.00 | 75 | 1014.0 |
| 20260507190543 | 16 | 4 | 3.2 | 6.4 | 0.00 | 0.00 | 0.00 | 75 | 1014.0 |
| 20260507190043 | 16 | 345 | 8.0 | 8.0 | 0.00 | 0.00 | 0.00 | 75 | 1014.0 |
| 20260507185543 | 16 | 1 | 4.8 | 4.8 | 0.00 | 0.00 | 0.00 | 74 | 1014.0 |
| 20260507185043 | 16 | 51 | 9.7 | 11.3 | 0.00 | 0.00 | 0.00 | 74 | 1014.0 |
| 20260507184542 | 16 | 85 | 6.4 | 9.7 | 0.00 | 0.00 | 0.00 | 74 | 1014.0 |
| 20260507184043 | 16 | 65 | 6.4 | 8.0 | 0.00 | 0.00 | 0.00 | 74 | 1014.0 |
| 20260507183542 | 16 | 122 | 4.8 | 6.4 | 0.00 | 0.00 | 0.00 | 74 | 1014.0 |
| 20260507183042 | 16 | 62 | 8.0 | 11.3 | 0.00 | 0.00 | 0.00 | 74 | 1014.0 |
| 20260507182542 | 16 | 56 | 8.0 | 11.3 | 0.00 | 0.00 | 0.00 | 74 | 1014.0 |
| 20260507182043 | 16 | 103 | 8.0 | 11.3 | 0.00 | 0.00 | 0.00 | 74 | 1014.0 |
| 20260507181543 | 16 | 90 | 6.4 | 9.7 | 0.00 | 0.00 | 0.00 | 73 | 1014.0 |
| 20260507181043 | 17 | 59 | 8.0 | 8.0 | 0.00 | 0.00 | 0.00 | 73 | 1014.0 |
| 20260507180543 | 17 | 30 | 3.2 | 9.7 | 0.00 | 0.00 | 0.00 | 72 | 1014.0 |
| 20260507180044 | 17 | 54 | 8.0 | 12.9 | 0.00 | 0.00 | 0.00 | 71 | 1014.0 |
| 20260507175542 | 17 | 65 | 4.8 | 12.9 | 0.00 | 0.00 | 0.00 | 72 | 1014.0 |
| 20260507175042 | 17 | 30 | 6.4 | 12.9 | 0.00 | 0.00 | 0.00 | 70 | 1014.0 |
| 20260507174542 | 17 | 58 | 14.5 | 19.3 | 0.00 | 0.00 | 0.00 | 70 | 1014.0 |
| 20260507174042 | 17 | 42 | 6.4 | 14.5 | 0.00 | 0.00 | 0.00 | 71 | 1013.0 |
| 20260507173543 | 17 | 100 | 9.7 | 12.9 | 0.00 | 0.00 | 0.00 | 72 | 1014.0 |
| 20260507173043 | 17 | 88 | 6.4 | 16.1 | 0.00 | 0.00 | 0.00 | 72 | 1014.0 |
| 20260507172543 | 17 | 102 | 9.7 | 17.7 | 0.00 | 0.00 | 0.00 | 71 | 1014.0 |
| 20260507172043 | 17 | 36 | 12.9 | 17.7 | 0.00 | 0.00 | 0.00 | 71 | 1013.0 |
| 20260507171543 | 17 | 67 | 9.7 | 17.7 | 0.00 | 0.00 | 0.00 | 71 | 1013.0 |
| 20260507171043 | 17 | 55 | 9.7 | 12.9 | 0.00 | 0.00 | 0.00 | 72 | 1014.0 |
| 20260507170542 | 17 | 104 | 16.1 | 20.9 | 0.00 | 0.00 | 0.00 | 71 | 1013.0 |
| 20260507170042 | 17 | 58 | 6.4 | 14.5 | 0.00 | 0.00 | 0.00 | 69 | 1013.0 |
| 20260507165542 | 18 | 109 | 8.0 | 17.7 | 0.00 | 0.00 | 0.00 | 69 | 1013.0 |
| 20260507165042 | 17 | 58 | 6.4 | 17.7 | 0.00 | 0.00 | 0.00 | 70 | 1013.0 |
| 20260507164543 | 18 | 295 | 3.2 | 8.0 | 0.00 | 0.00 | 0.00 | 68 | 1013.0 |
| 20260507164043 | 18 | 73 | 6.4 | 14.5 | 0.00 | 0.00 | 0.00 | 69 | 1013.0 |
| 20260507163543 | 18 | 46 | 14.5 | 19.3 | 0.00 | 0.00 | 0.00 | 69 | 1013.0 |
| 20260507163043 | 18 | 51 | 8.0 | 11.3 | 0.00 | 0.00 | 0.00 | 69 | 1013.0 |
| 20260507162542 | 18 | 290 | 6.4 | 17.7 | 0.00 | 0.00 | 0.00 | 68 | 1013.0 |
| 20260507162043 | 18 | 61 | 9.7 | 11.3 | 0.00 | 0.00 | 0.00 | 68 | 1013.0 |
| 20260507161542 | 18 | 109 | 11.3 | 19.3 | 0.00 | 0.00 | 0.00 | 67 | 1013.0 |
| 20260507161043 | 18 | 60 | 11.3 | 17.7 | 0.00 | 0.00 | 0.00 | 67 | 1013.0 |
| 20260507160543 | 17 | 323 | 3.2 | 14.5 | 0.00 | 0.00 | 0.00 | 69 | 1013.0 |
| 20260507160043 | 17 | 126 | 12.9 | 14.5 | 0.00 | 0.00 | 0.00 | 69 | 1013.0 |
| 20260507155543 | 17 | 65 | 14.5 | 19.3 | 0.00 | 0.00 | 0.00 | 69 | 1013.0 |
| 20260507155043 | 18 | 359 | 8.0 | 16.1 | 0.00 | 0.00 | 0.00 | 68 | 1013.0 |
| 20260507154542 | 18 | 32 | 4.8 | 14.5 | 0.00 | 0.00 | 0.00 | 67 | 1013.0 |
| 20260507154043 | 18 | 83 | 12.9 | 14.5 | 0.00 | 0.00 | 0.00 | 68 | 1013.0 |
| 20260507153542 | 17 | 57 | 9.7 | 16.1 | 0.00 | 0.00 | 0.00 | 68 | 1013.0 |
| 20260507153043 | 17 | 62 | 11.3 | 19.3 | 0.00 | 0.00 | 0.00 | 68 | 1013.0 |
| 20260507152542 | 18 | 59 | 22.5 | 24.1 | 0.00 | 0.00 | 0.00 | 67 | 1013.0 |
| 20260507152044 | 18 | 92 | 4.8 | 9.7 | 0.00 | 0.00 | 0.00 | 67 | 1013.0 |
| 20260507151542 | 18 | 58 | 14.5 | 19.3 | 0.00 | 0.00 | 0.00 | 66 | 1013.0 |
| 20260507151042 | 18 | 65 | 19.3 | 24.1 | 0.00 | 0.00 | 0.00 | 67 | 1013.0 |
| 20260507150542 | 18 | 80 | 11.3 | 19.3 | 0.00 | 0.00 | 0.00 | 65 | 1013.0 |
| 20260507150045 | 18 | 53 | 17.7 | 22.5 | 0.00 | 0.00 | 0.00 | 66 | 1013.0 |
| 20260507145543 | 18 | 2 | 11.3 | 12.9 | 0.00 | 0.00 | 0.00 | 66 | 1013.0 |
| 20260507145042 | 18 | 316 | 14.5 | 16.1 | 0.00 | 0.00 | 0.00 | 64 | 1013.0 |
| 20260507144543 | 18 | 82 | 17.7 | 17.7 | 0.00 | 0.00 | 0.00 | 65 | 1013.0 |
| 20260507144042 | 18 | 59 | 4.8 | 22.5 | 0.00 | 0.00 | 0.00 | 66 | 1014.0 |
| 20260507143543 | 18 | 62 | 12.9 | 27.4 | 0.00 | 0.00 | 0.00 | 66 | 1013.0 |
| 20260507143043 | 18 | 66 | 14.5 | 20.9 | 0.00 | 0.00 | 0.00 | 65 | 1014.0 |
| 20260507142543 | 18 | 62 | 8.0 | 14.5 | 0.00 | 0.00 | 0.00 | 64 | 1014.0 |
| 20260507142043 | 18 | 290 | 8.0 | 14.5 | 0.00 | 0.00 | 0.00 | 66 | 1014.0 |
| 20260507141542 | 18 | 56 | 16.1 | 19.3 | 0.00 | 0.00 | 0.00 | 66 | 1014.0 |
| 20260507141043 | 19 | 296 | 4.8 | 9.7 | 0.00 | 0.00 | 0.00 | 64 | 1014.0 |
| 20260507140543 | 18 | 59 | 6.4 | 16.1 | 0.00 | 0.00 | 0.00 | 64 | 1014.0 |
| 20260507140043 | 18 | 300 | 3.2 | 17.7 | 0.00 | 0.00 | 0.00 | 64 | 1014.0 |
| 20260507135548 | 18 | 63 | 22.5 | 29.0 | 0.00 | 0.00 | 0.00 | 67 | 1014.0 |
| 20260507135043 | 18 | 42 | 20.9 | 22.5 | 0.00 | 0.00 | 0.00 | 63 | 1014.0 |
| 20260507134543 | 18 | 54 | 12.9 | 20.9 | 0.00 | 0.00 | 0.00 | 64 | 1014.0 |
| 20260507134043 | 18 | 96 | 4.8 | 20.9 | 0.00 | 0.00 | 0.00 | 66 | 1014.0 |
| 20260507133542 | 18 | 82 | 9.7 | 24.1 | 0.00 | 0.00 | 0.00 | 64 | 1014.0 |
| 20260507133043 | 18 | 56 | 20.9 | 30.6 | 0.00 | 0.00 | 0.00 | 65 | 1014.0 |
| 20260507132542 | 18 | 134 | 4.8 | 20.9 | 0.00 | 0.00 | 0.00 | 64 | 1014.0 |
| 20260507132043 | 18 | 72 | 8.0 | 20.9 | 0.00 | 0.00 | 0.00 | 66 | 1014.0 |
| 20260507131543 | 18 | 36 | 9.7 | 19.3 | 0.00 | 0.00 | 0.00 | 66 | 1014.0 |
| 20260507131042 | 18 | 83 | 8.0 | 20.9 | 0.00 | 0.00 | 0.00 | 66 | 1014.0 |
| 20260507130545 | 18 | 55 | 16.1 | 24.1 | 0.00 | 0.00 | 0.00 | 64 | 1014.0 |
| 20260507130043 | 18 | 358 | 8.0 | 14.5 | 0.00 | 0.00 | 0.00 | 65 | 1014.0 |
| 20260507125548 | 18 | 353 | 8.0 | 12.9 | 0.00 | 0.00 | 0.00 | 64 | 1014.0 |
| 20260507125042 | 18 | 334 | 4.8 | 14.5 | 0.00 | 0.00 | 0.00 | 65 | 1015.0 |
| 20260507124543 | 17 | 93 | 9.7 | 9.7 | 0.00 | 0.00 | 0.00 | 67 | 1014.0 |
| 20260507124043 | 18 | 59 | 11.3 | 24.1 | 0.00 | 0.00 | 0.00 | 67 | 1015.0 |
| 20260507123543 | 18 | 74 | 16.1 | 24.1 | 0.00 | 0.00 | 0.00 | 63 | 1015.0 |
| 20260507123043 | 18 | 85 | 12.9 | 17.7 | 0.00 | 0.00 | 0.00 | 66 | 1014.0 |
| 20260507122543 | 18 | 62 | 4.8 | 27.4 | 0.00 | 0.00 | 0.00 | 66 | 1015.0 |
| 20260507122043 | 18 | 55 | 20.9 | 24.1 | 0.00 | 0.00 | 0.00 | 65 | 1015.0 |
| 20260507121543 | 17 | 101 | 6.4 | 25.7 | 0.00 | 0.00 | 0.00 | 67 | 1015.0 |
| 20260507121043 | 18 | 66 | 14.5 | 27.4 | 0.00 | 0.00 | 0.00 | 66 | 1015.0 |
| 20260507120543 | 17 | 83 | 8.0 | 22.5 | 0.00 | 0.00 | 0.00 | 67 | 1015.0 |
| 20260507120042 | 18 | 67 | 17.7 | 25.7 | 0.00 | 0.00 | 0.00 | 64 | 1015.0 |
| 20260507115543 | 18 | 90 | 14.5 | 16.1 | 0.00 | 0.00 | 0.00 | 65 | 1015.0 |
| 20260507115042 | 18 | 98 | 8.0 | 14.5 | 0.00 | 0.00 | 0.00 | 65 | 1015.0 |
| 20260507114543 | 18 | 104 | 8.0 | 17.7 | 0.00 | 0.00 | 0.00 | 66 | 1015.0 |
| 20260507114042 | 18 | 55 | 20.9 | 30.6 | 0.00 | 0.00 | 0.00 | 64 | 1015.0 |
| 20260507113542 | 18 | 76 | 16.1 | 24.1 | 0.00 | 0.00 | 0.00 | 64 | 1015.0 |
| 20260507113042 | 19 | 59 | 4.8 | 14.5 | 0.00 | 0.00 | 0.00 | 63 | 1015.0 |
| 20260507112542 | 18 | 20 | 4.8 | 17.7 | 0.00 | 0.00 | 0.00 | 66 | 1015.0 |
| 20260507112045 | 18 | 176 | 4.8 | 14.5 | 0.00 | 0.00 | 0.00 | 65 | 1015.0 |
| 20260507111542 | 18 | 133 | 19.3 | 24.1 | 0.00 | 0.00 | 0.00 | 64 | 1015.0 |
| 20260507111043 | 18 | 12 | 14.5 | 16.1 | 0.00 | 0.00 | 0.00 | 64 | 1015.0 |
| 20260507110543 | 17 | 21 | 11.3 | 17.7 | 0.00 | 0.00 | 0.00 | 67 | 1015.0 |
| 20260507110044 | 17 | 59 | 20.9 | 24.1 | 0.00 | 0.00 | 0.00 | 67 | 1015.0 |
| 20260507105542 | 17 | 65 | 17.7 | 17.7 | 0.00 | 0.00 | 0.00 | 67 | 1015.0 |
| 20260507105042 | 18 | 77 | 8.0 | 20.9 | 0.00 | 0.00 | 0.00 | 67 | 1015.0 |
| 20260507104543 | 18 | 352 | 8.0 | 14.5 | 0.00 | 0.00 | 0.00 | 67 | 1015.0 |
| 20260507104043 | 17 | 67 | 16.1 | 20.9 | 0.00 | 0.00 | 0.00 | 68 | 1015.0 |
| 20260507103543 | 18 | 71 | 19.3 | 24.1 | 0.00 | 0.00 | 0.00 | 66 | 1015.0 |
| 20260507103042 | 18 | 340 | 4.8 | 16.1 | 0.00 | 0.00 | 0.00 | 67 | 1015.0 |
| 20260507102542 | 18 | 54 | 20.9 | 25.7 | 0.00 | 0.00 | 0.00 | 67 | 1015.0 |
| 20260507102043 | 18 | 62 | 3.2 | 16.1 | 0.00 | 0.00 | 0.00 | 67 | 1015.0 |
| 20260507101055 | 18 | 56 | 8.0 | 17.7 | 0.00 | 0.00 | 0.00 | 66 | 1015.0 |
| 20260507100542 | 18 | 64 | 19.3 | 20.9 | 0.00 | 0.00 | 0.00 | 64 | 1015.0 |
| 20260507100042 | 18 | 1 | 8.0 | 17.7 | 0.00 | 0.00 | 0.00 | 67 | 1015.0 |
| 20260507095542 | 18 | 78 | 3.2 | 9.7 | 0.00 | 0.00 | 0.00 | 65 | 1015.0 |
| 20260507095044 | 18 | 135 | 4.8 | 17.7 | 0.00 | 0.00 | 0.00 | 67 | 1015.0 |
| 20260507094542 | 17 | 54 | 22.5 | 24.1 | 0.00 | 0.00 | 0.00 | 68 | 1015.0 |
| 20260507094042 | 17 | 52 | 17.7 | 22.5 | 0.00 | 0.00 | 0.00 | 68 | 1015.0 |
| 20260507093542 | 18 | 11 | 3.2 | 11.3 | 0.00 | 0.00 | 0.00 | 67 | 1015.0 |
| 20260507092542 | 18 | 49 | 17.7 | 19.3 | 0.00 | 0.00 | 0.00 | 65 | 1015.0 |
| 20260507092042 | 17 | 47 | 4.8 | 11.3 | 0.00 | 0.00 | 0.00 | 68 | 1015.0 |
| 20260507091542 | 17 | 62 | 16.1 | 17.7 | 0.00 | 0.00 | 0.00 | 69 | 1015.0 |
| 20260507091042 | 17 | 17 | 8.0 | 17.7 | 0.00 | 0.00 | 0.00 | 70 | 1015.0 |
| 20260507090542 | 17 | 25 | 8.0 | 14.5 | 0.00 | 0.00 | 0.00 | 70 | 1015.0 |
| 20260507090043 | 17 | 77 | 12.9 | 17.7 | 0.00 | 0.00 | 0.00 | 68 | 1015.0 |
| 20260507085544 | 17 | 58 | 4.8 | 9.7 | 0.00 | 0.00 | 0.00 | 68 | 1015.0 |
| 20260507085043 | 17 | 330 | 6.4 | 16.1 | 0.00 | 0.00 | 0.00 | 68 | 1015.0 |
| 20260507084542 | 17 | 353 | 1.6 | 11.3 | 0.00 | 0.00 | 0.00 | 69 | 1015.0 |
| 20260507084043 | 17 | 31 | 4.8 | 8.0 | 0.00 | 0.00 | 0.00 | 71 | 1015.0 |
| 20260507083542 | 17 | 19 | 3.2 | 11.3 | 0.00 | 0.00 | 0.00 | 71 | 1015.0 |
| 20260507083043 | 17 | 239 | 3.2 | 12.9 | 0.00 | 0.00 | 0.00 | 70 | 1015.0 |
| 20260507082543 | 17 | 283 | 9.7 | 11.3 | 0.00 | 0.00 | 0.00 | 70 | 1015.0 |
| 20260507082042 | 17 | 313 | 3.2 | 8.0 | 0.00 | 0.00 | 0.00 | 69 | 1015.0 |
| 20260507081543 | 17 | 26 | 3.2 | 12.9 | 0.00 | 0.00 | 0.00 | 72 | 1015.0 |
| 20260507081045 | 17 | 21 | 9.7 | 12.9 | 0.00 | 0.00 | 0.00 | 71 | 1015.0 |
| 20260507080542 | 16 | 3 | 6.4 | 9.7 | 0.00 | 0.00 | 0.00 | 73 | 1015.0 |
| 20260507080042 | 16 | 40 | 6.4 | 12.9 | 0.00 | 0.00 | 0.00 | 73 | 1015.0 |
| 20260507075542 | 16 | 18 | 9.7 | 16.1 | 0.00 | 0.00 | 0.00 | 74 | 1015.0 |
| 20260507075042 | 16 | 6 | 6.4 | 12.9 | 0.00 | 0.00 | 0.00 | 74 | 1015.0 |
| 20260507074542 | 16 | 359 | 12.9 | 17.7 | 0.00 | 0.00 | 0.00 | 74 | 1015.0 |
| 20260507074042 | 16 | 294 | 6.4 | 12.9 | 0.00 | 0.00 | 0.00 | 74 | 1016.0 |
| 20260507073542 | 16 | 273 | 4.8 | 12.9 | 0.00 | 0.00 | 0.00 | 74 | 1015.0 |
| 20260507073043 | 16 | 307 | 8.0 | 17.7 | 0.00 | 0.00 | 0.00 | 75 | 1015.0 |
| 20260507072542 | 15 | 288 | 3.2 | 8.0 | 0.00 | 0.00 | 0.00 | 76 | 1016.0 |
| 20260507072043 | 15 | 293 | 8.0 | 9.7 | 0.00 | 0.00 | 0.00 | 75 | 1015.0 |
| 20260507071543 | 15 | 352 | 11.3 | 11.3 | 0.00 | 0.00 | 0.00 | 75 | 1015.0 |
| 20260507071042 | 15 | 339 | 8.0 | 9.7 | 0.00 | 0.00 | 0.00 | 73 | 1015.0 |
| 20260507070544 | 16 | 41 | 6.4 | 11.3 | 0.00 | 0.00 | 0.00 | 71 | 1015.0 |
| 20260507070042 | 16 | 32 | 6.4 | 9.7 | 0.00 | 0.00 | 0.00 | 70 | 1015.0 |
| 20260507065543 | 16 | 301 | 1.6 | 8.0 | 0.00 | 0.00 | 0.00 | 70 | 1015.0 |
| 20260507065043 | 16 | 293 | 3.2 | 8.0 | 0.00 | 0.00 | 0.00 | 70 | 1015.0 |
| 20260507064543 | 15 | 352 | 3.2 | 6.4 | 0.00 | 0.00 | 0.00 | 70 | 1015.0 |
| 20260507064042 | 15 | 350 | 6.4 | 9.7 | 0.00 | 0.00 | 0.00 | 69 | 1015.0 |
| 20260507063543 | 15 | 21 | 3.2 | 8.0 | 0.00 | 0.00 | 0.00 | 69 | 1015.0 |
| 20260507063042 | 15 | 13 | 1.6 | 4.8 | 0.00 | 0.00 | 0.00 | 67 | 1015.0 |
| 20260507062542 | 16 | 23 | 4.8 | 8.0 | 0.00 | 0.00 | 0.00 | 66 | 1015.0 |
| 20260507062043 | 16 | 2 | 4.8 | 8.0 | 0.00 | 0.00 | 0.00 | 64 | 1015.0 |
| 20260507061542 | 16 | 344 | 3.2 | 6.4 | 0.00 | 0.00 | 0.00 | 65 | 1015.0 |
| 20260507061043 | 17 | 92 | 1.6 | 3.2 | 0.00 | 0.00 | 0.00 | 64 | 1015.0 |
| 20260507060042 | 16 | 356 | 3.2 | 4.8 | 0.00 | 0.00 | 0.00 | 69 | 1015.0 |
| 20260507055543 | 16 | 28 | 0.0 | 3.2 | 0.00 | 0.00 | 0.00 | 68 | 1014.0 |
| 20260507055042 | 15 | 33 | 0.0 | 3.2 | 0.00 | 0.00 | 0.00 | 70 | 1014.0 |
| 20260507054542 | 15 | 308 | 3.2 | 4.8 | 0.00 | 0.00 | 0.00 | 71 | 1014.0 |
| 20260507054043 | 15 | 33 | 0.0 | 3.2 | 0.00 | 0.00 | 0.00 | 73 | 1014.0 |
| 20260507053543 | 14 | 46 | 0.0 | 1.6 | 0.00 | 0.00 | 0.00 | 74 | 1014.0 |
| 20260507053042 | 13 | 6 | 3.2 | 4.8 | 0.00 | 0.00 | 0.00 | 75 | 1014.0 |
| 20260507052542 | 13 | 38 | 3.2 | 3.2 | 0.00 | 0.00 | 0.00 | 75 | 1014.0 |
| 20260507052043 | 13 | 2 | 1.6 | 3.2 | 0.00 | 0.00 | 0.00 | 75 | 1014.0 |
| 20260507051542 | 13 | 9 | 1.6 | 4.8 | 0.00 | 0.00 | 0.00 | 76 | 1014.0 |
| 20260507051042 | 13 | 10 | 1.6 | 4.8 | 0.00 | 0.00 | 0.00 | 76 | 1014.0 |
| 20260507050542 | 13 | 323 | 0.0 | 3.2 | 0.00 | 0.00 | 0.00 | 76 | 1014.0 |
| 20260507050042 | 13 | 44 | 3.2 | 3.2 | 0.00 | 0.00 | 0.00 | 76 | 1014.0 |
| 20260507045542 | 13 | 3 | 3.2 | 3.2 | 0.00 | 0.00 | 0.00 | 76 | 1014.0 |
| 20260507045042 | 13 | 22 | 1.6 | 4.8 | 0.00 | 0.00 | 0.00 | 76 | 1014.0 |
| 20260507044543 | 13 | 337 | 4.8 | 4.8 | 0.00 | 0.00 | 0.00 | 76 | 1014.0 |
| 20260507044042 | 13 | 344 | 0.0 | 4.8 | 0.00 | 0.00 | 0.00 | 76 | 1014.0 |
| 20260507043543 | 13 | 27 | 4.8 | 4.8 | 0.00 | 0.00 | 0.00 | 76 | 1014.0 |
| 20260507043042 | 13 | 337 | 0.0 | 4.8 | 0.00 | 0.00 | 0.00 | 76 | 1014.0 |
| 20260507042543 | 13 | 330 | 3.2 | 4.8 | 0.00 | 0.00 | 0.00 | 76 | 1014.0 |
| 20260507042043 | 13 | 350 | 6.4 | 6.4 | 0.00 | 0.00 | 0.00 | 76 | 1014.0 |
| 20260507041543 | 13 | 359 | 0.0 | 4.8 | 0.00 | 0.00 | 0.00 | 76 | 1014.0 |
| 20260507041042 | 13 | 326 | 4.8 | 6.4 | 0.00 | 0.00 | 0.00 | 77 | 1014.0 |
| 20260507040542 | 13 | 330 | 6.4 | 8.0 | 0.00 | 0.00 | 0.00 | 77 | 1014.0 |
| 20260507040042 | 13 | 320 | 3.2 | 6.4 | 0.00 | 0.00 | 0.00 | 77 | 1014.0 |
| 20260507035542 | 13 | 4 | 3.2 | 8.0 | 0.00 | 0.00 | 0.00 | 77 | 1014.0 |
| 20260507035043 | 13 | 352 | 4.8 | 6.4 | 0.00 | 0.00 | 0.00 | 77 | 1014.0 |
| 20260507034543 | 13 | 15 | 3.2 | 4.8 | 0.00 | 0.00 | 0.00 | 78 | 1014.0 |
| 20260507034042 | 13 | 4 | 3.2 | 6.4 | 0.00 | 0.00 | 0.00 | 78 | 1014.0 |
| 20260507033542 | 13 | 317 | 1.6 | 4.8 | 0.00 | 0.00 | 0.00 | 78 | 1014.0 |
| 20260507033043 | 13 | 299 | 3.2 | 4.8 | 0.00 | 0.00 | 0.00 | 78 | 1014.0 |
| 20260507032542 | 13 | 352 | 3.2 | 4.8 | 0.00 | 0.00 | 0.00 | 78 | 1014.0 |
| 20260507032042 | 13 | 332 | 4.8 | 8.0 | 0.00 | 0.00 | 0.00 | 78 | 1014.0 |
| 20260507031543 | 13 | 345 | 3.2 | 4.8 | 0.00 | 0.00 | 0.00 | 78 | 1014.0 |
| 20260507031043 | 14 | 336 | 6.4 | 8.0 | 0.00 | 0.00 | 0.00 | 78 | 1014.0 |
| 20260507030543 | 14 | 355 | 3.2 | 3.2 | 0.00 | 0.00 | 0.00 | 78 | 1014.0 |
| 20260507030042 | 14 | 337 | 3.2 | 4.8 | 0.00 | 0.00 | 0.00 | 78 | 1014.0 |
| 20260507025543 | 14 | 312 | 3.2 | 6.4 | 0.00 | 0.00 | 0.00 | 78 | 1014.0 |
| 20260507025047 | 14 | 332 | 4.8 | 4.8 | 0.00 | 0.00 | 0.00 | 79 | 1014.0 |
| 20260507024543 | 14 | 37 | 1.6 | 4.8 | 0.00 | 0.00 | 0.00 | 78 | 1014.0 |
| 20260507024043 | 14 | 0 | 1.6 | 4.8 | 0.00 | 0.00 | 0.00 | 78 | 1014.0 |
| 20260507023543 | 14 | 339 | 3.2 | 4.8 | 0.00 | 0.00 | 0.00 | 78 | 1014.0 |
| 20260507023043 | 14 | 318 | 4.8 | 6.4 | 0.00 | 0.00 | 0.00 | 78 | 1014.0 |
| 20260507022542 | 14 | 327 | 4.8 | 6.4 | 0.00 | 0.00 | 0.00 | 78 | 1014.0 |
| 20260507022042 | 14 | 315 | 0.0 | 6.4 | 0.00 | 0.00 | 0.00 | 78 | 1014.0 |
| 20260507021542 | 14 | 33 | 0.0 | 3.2 | 0.00 | 0.00 | 0.00 | 78 | 1014.0 |
| 20260507021042 | 14 | 13 | 3.2 | 6.4 | 0.00 | 0.00 | 0.00 | 78 | 1014.0 |